一网星座-0169星 (ONEWEB-0169 )

导读

ONEWEB-0169是英国OneWeb公司低轨宽带卫星星座中的一颗卫星,于2021年3月25日发射升空。该卫星运行在约1200公里的近地轨道,配备Ku/Ka波段天线,采用霍尔效应推进器,单星通信能力约7.5Gbps,设计使用寿命5-7年。作为OneWeb全球互联网星座的组成部分,它主要为航空、海事、偏远地区提供高速低时延宽带互联网接入服务,助力填补全球网络覆盖空白,支撑北极等地区的网络 connectivity。

Basic Information
目录编号:
48077
目录名称:
ONEWEB-0169
国际标识:
2021-025AM
轨道中心:
EARTH
卫星名称:
一网星座-0169星
卫星全名:
一网星座-0169星 (ONEWEB-0169 )
卫星状态:
在轨 (已飞行1907 天)
发射日期:
2021-03-25 UTC
国别 :
英国 (GB)
星等 :
--
Orbit Information
数据来源 国际轨道数据 AOE轨道数据
星历时间 2026-06-14T05:48:18+0800
14小时前
查看轨道信息
2026-06-09T06:00:00+0800
5天前
查看轨道信息
半长轴 7587.905km 7587.902km
偏心率 0.000193 0.0001551
轨道倾角 87.895° 87.894°
近地点辐角 96.232° 94.061°
升交点赤经 320.874° 321.869°
平近点角 263.903° 75.483°
近地点 1208.303km 1208.588km
远地点 1211.233km 1210.942km
周期 109.633分钟 109.633分钟
每日圈数 13.134695 13.134703
Detailed Information
平衡模式:
三轴稳定
覆盖范围:
全球
运营商:
一网卫星公司
运营商所在国:
英国
制造商(研发单位):
一网卫星公司
制造商所在国:
英国
使用方式:
暂无
Satellite Introduction
OneWeb卫星网络由648颗重约125公斤的微型卫星组成,运行在1200公里的轨道上。 每颗卫星都能够提供至少每秒8千兆位的吞吐量,以使用其高吞吐量的Ku频段有效载荷为家庭和移动平台提供互联网接入。该卫星仍在工作。
2D Orbit Map
3D Orbit Map
Orbit Altitude Analysis Chart
Orbit Inclination Analysis Chart
Orbit Comprehensive Analysis Chart
View Comprehensive Chart